When you browse on this site, cookies collect data to enhance your experience and personalize the content and advertising you see.
Visit our Privacy Policy to learn more. By continuing to use the site, you agree to this use of cookies and data.
  • în România
  • Lista ţărilor
  • Pe 7 zile
  • Temperatura apei
  • Meteo pe hartă
  • Widget-uri
  • user-avatar
    Intrare

    Meteo pe oră la Saint-Malo

    Astăzi, 1 Iunie, Luni

    Timp Temperatura Precipitaţii Vânt Presiune Umiditate
    00:00 +13°C° 0 mm 5 m/s 763 mmHg 87%
    01:00 +12°C° 0 mm 4 m/s 763 mmHg 87%
    02:00 +12°C° 0 mm 4 m/s 763 mmHg 87%
    03:00 +11°C° 0 mm 3 m/s 763 mmHg 87%
    04:00 +12°C° 0 mm 4 m/s 763 mmHg 85%
    05:00 +13°C° 0 mm 4 m/s 763 mmHg 83%
    06:00 +15°C° 0 mm 5 m/s 763 mmHg 80%
    07:00 +16°C° 0 mm 5 m/s 763 mmHg 73%
    08:00 +19°C° 0 mm 5 m/s 763 mmHg 66%
    09:00 +21°C° 0 mm 5 m/s 763 mmHg 59%
    10:00 +22°C° 0 mm 5 m/s 763 mmHg 58%
    11:00 +23°C° 0 mm 5 m/s 763 mmHg 56%
    12:00 +23°C° 0 mm 5 m/s 763 mmHg 55%
    13:00 +23°C° 0 mm 6 m/s 763 mmHg 56%
    14:00 +24°C° 0 mm 6 m/s 763 mmHg 56%
    15:00 +24°C° 0 mm 6 m/s 763 mmHg 57%
    16:00 +23°C° 0 mm 6 m/s 763 mmHg 62%
    17:00 +22°C° 0 mm 7 m/s 763 mmHg 66%
    18:00 +21°C° 0 mm 7 m/s 763 mmHg 71%
    19:00 +19°C° 0 mm 6 m/s 763 mmHg 76%
    20:00 +17°C° 0 mm 6 m/s 764 mmHg 81%
    21:00 +15°C° 0 mm 5 m/s 764 mmHg 86%
    22:00 +14°C° 0 mm 5 m/s 764 mmHg 88%
    23:00 +14°C° 0 mm 4 m/s 764 mmHg 90%

    Mâine, 2 Iunie, Marţi

    Timp Temperatura Precipitaţii Vânt Presiune Umiditate
    00:00 +13°C° 0 mm 4 m/s 764 mmHg 92%
    01:00 +13°C° 0 mm 4 m/s 764 mmHg 92%
    02:00 +13°C° 0 mm 4 m/s 764 mmHg 93%
    03:00 +13°C° 0 mm 4 m/s 764 mmHg 94%
    04:00 +14°C° 0 mm 4 m/s 763 mmHg 93%
    05:00 +14°C° 0 mm 4 m/s 763 mmHg 91%
    06:00 +15°C° 0 mm 4 m/s 763 mmHg 90%
    07:00 +18°C° 0 mm 4 m/s 763 mmHg 85%
    08:00 +19°C° 0 mm 3 m/s 763 mmHg 80%
    09:00 +21°C° 0 mm 3 m/s 763 mmHg 74%
    10:00 +22°C° 0 mm 3 m/s 763 mmHg 72%
    11:00 +23°C° 0 mm 4 m/s 763 mmHg 69%
    12:00 +23°C° 0 mm 4 m/s 763 mmHg 67%
    13:00 +23°C° 0 mm 4 m/s 762 mmHg 69%
    14:00 +23°C° 0 mm 5 m/s 762 mmHg 71%
    15:00 +23°C° 0 mm 5 m/s 761 mmHg 72%
    16:00 +22°C° 0 mm 5 m/s 761 mmHg 74%
    17:00 +21°C° 0 mm 5 m/s 761 mmHg 77%
    18:00 +21°C° 0 mm 5 m/s 760 mmHg 79%
    19:00 +19°C° 0 mm 4 m/s 760 mmHg 83%
    20:00 +17°C° 0 mm 4 m/s 760 mmHg 88%
    21:00 +15°C° 0 mm 4 m/s 761 mmHg 92%
    22:00 +14°C° 0 mm 4 m/s 760 mmHg 92%
    23:00 +14°C° 0 mm 4 m/s 760 mmHg 91%

    Poimâine, 3 Iunie, Miercuri

    Timp Temperatura Precipitaţii Vânt Presiune Umiditate
    00:00 +13°C° 0 mm 3 m/s 759 mmHg 91%
    01:00 +13°C° 0 mm 3 m/s 759 mmHg 90%
    02:00 +13°C° 0 mm 3 m/s 758 mmHg 90%
    03:00 +13°C° 0 mm 3 m/s 758 mmHg 89%
    04:00 +14°C° 0 mm 3 m/s 757 mmHg 88%
    05:00 +14°C° 0 mm 3 m/s 757 mmHg 86%
    06:00 +16°C° 0 mm 3 m/s 756 mmHg 84%
    07:00 +17°C° 0 mm 3 m/s 756 mmHg 80%
    08:00 +18°C° 0 mm 3 m/s 756 mmHg 76%
    09:00 +19°C° 0 mm 4 m/s 756 mmHg 71%
    10:00 +20°C° 0 mm 4 m/s 755 mmHg 69%
    11:00 +20°C° 0 mm 4 m/s 755 mmHg 68%
    12:00 +20°C° 0 mm 5 m/s 754 mmHg 66%
    13:00 +20°C° 0.1 mm 5 m/s 754 mmHg 67%
    14:00 +20°C° 0.1 mm 6 m/s 753 mmHg 68%
    15:00 +20°C° 0.1 mm 6 m/s 753 mmHg 69%
    16:00 +19°C° 0.2 mm 6 m/s 753 mmHg 72%
    17:00 +17°C° 0.2 mm 6 m/s 752 mmHg 75%
    18:00 +16°C° 0.2 mm 6 m/s 752 mmHg 79%
    19:00 +15°C° 0.2 mm 6 m/s 753 mmHg 82%
    20:00 +14°C° 0.2 mm 5 m/s 753 mmHg 86%
    21:00 +13°C° 0.2 mm 5 m/s 753 mmHg 90%
    22:00 +13°C° 0.1 mm 6 m/s 753 mmHg 91%
    23:00 +13°C° 0.1 mm 6 m/s 753 mmHg 92%

    4 Iunie, Joi

    Timp Temperatura Precipitaţii Vânt Presiune Umiditate
    00:00 +11°C° 0.1 mm 6 m/s 753 mmHg 94%
    01:00 +11°C° 0 mm 7 m/s 753 mmHg 93%
    02:00 +12°C° 0 mm 7 m/s 753 mmHg 93%
    03:00 +12°C° 0 mm 7 m/s 753 mmHg 92%
    04:00 +12°C° 0 mm 7 m/s 753 mmHg 91%
    05:00 +11°C° 0 mm 7 m/s 753 mmHg 89%
    06:00 +11°C° 0 mm 7 m/s 753 mmHg 88%
    07:00 +11°C° 0 mm 7 m/s 754 mmHg 87%
    08:00 +12°C° 0 mm 7 m/s 754 mmHg 85%
    09:00 +12°C° 0 mm 7 m/s 754 mmHg 84%
    10:00 +12°C° 0 mm 7 m/s 754 mmHg 81%
    11:00 +14°C° 0 mm 7 m/s 754 mmHg 78%
    12:00 +14°C° 0 mm 7 m/s 755 mmHg 75%
    13:00 +15°C° 0 mm 7 m/s 754 mmHg 73%
    14:00 +15°C° 0 mm 7 m/s 754 mmHg 72%
    15:00 +15°C° 0 mm 7 m/s 754 mmHg 70%
    16:00 +15°C° 0 mm 7 m/s 754 mmHg 71%
    17:00 +14°C° 0 mm 7 m/s 755 mmHg 72%
    18:00 +14°C° 0 mm 7 m/s 755 mmHg 73%
    19:00 +13°C° 0 mm 6 m/s 755 mmHg 76%
    20:00 +11°C° 0 mm 6 m/s 756 mmHg 79%
    21:00 +11°C° 0 mm 6 m/s 756 mmHg 83%
    22:00 +10°C° 0 mm 6 m/s 756 mmHg 85%
    23:00 +10°C° 0 mm 6 m/s 756 mmHg 87%

    5 Iunie, Vineri

    Timp Temperatura Precipitaţii Vânt Presiune Umiditate
    00:00 +9°C° 0 mm 5 m/s 756 mmHg 89%
    01:00 +9°C° 0 mm 6 m/s 756 mmHg 89%
    02:00 +9°C° 0 mm 6 m/s 756 mmHg 90%
    03:00 +9°C° 0 mm 6 m/s 756 mmHg 90%
    04:00 +10°C° 0 mm 6 m/s 756 mmHg 89%
    05:00 +10°C° 0 mm 6 m/s 756 mmHg 89%
    06:00 +11°C° 0 mm 6 m/s 756 mmHg 88%
    07:00 +12°C° 0.1 mm 7 m/s 756 mmHg 84%
    08:00 +14°C° 0.1 mm 7 m/s 756 mmHg 80%
    09:00 +16°C° 0.1 mm 7 m/s 756 mmHg 76%
    10:00 +16°C° 0.1 mm 7 m/s 756 mmHg 76%
    11:00 +16°C° 0.1 mm 7 m/s 756 mmHg 77%
    12:00 +16°C° 0.1 mm 7 m/s 756 mmHg 78%
    13:00 +16°C° 0.1 mm 7 m/s 756 mmHg 78%
    14:00 +16°C° 0.1 mm 7 m/s 755 mmHg 78%
    15:00 +16°C° 0.1 mm 8 m/s 755 mmHg 77%
    16:00 +16°C° 0 mm 8 m/s 755 mmHg 78%
    17:00 +16°C° 0 mm 7 m/s 755 mmHg 79%
    18:00 +15°C° 0 mm 7 m/s 755 mmHg 80%
    19:00 +15°C° 0.1 mm 7 m/s 755 mmHg 82%
    20:00 +14°C° 0.1 mm 7 m/s 756 mmHg 83%
    21:00 +14°C° 0.1 mm 7 m/s 756 mmHg 85%
    22:00 +14°C° 0.1 mm 7 m/s 756 mmHg 86%
    23:00 +14°C° 0.1 mm 6 m/s 756 mmHg 87%

    6 Iunie, Sâmbătă

    Timp Temperatura Precipitaţii Vânt Presiune Umiditate
    00:00 +13°C° 0.1 mm 6 m/s 756 mmHg 88%
    01:00 +13°C° 0.1 mm 6 m/s 756 mmHg 88%
    02:00 +13°C° 0.1 mm 6 m/s 756 mmHg 88%
    03:00 +13°C° 0.1 mm 6 m/s 756 mmHg 88%
    04:00 +13°C° 0 mm 5 m/s 757 mmHg 88%
    05:00 +13°C° 0 mm 5 m/s 757 mmHg 87%
    06:00 +13°C° 0 mm 5 m/s 757 mmHg 86%
    07:00 +14°C° 0 mm 4 m/s 757 mmHg 81%
    08:00 +15°C° 0 mm 4 m/s 757 mmHg 76%
    09:00 +17°C° 0 mm 4 m/s 758 mmHg 70%
    10:00 +17°C° 0 mm 4 m/s 758 mmHg 69%
    11:00 +17°C° 0 mm 4 m/s 758 mmHg 67%
    12:00 +17°C° 0 mm 4 m/s 758 mmHg 65%
    13:00 +17°C° 0 mm 4 m/s 758 mmHg 65%
    14:00 +17°C° 0 mm 4 m/s 758 mmHg 65%
    15:00 +17°C° 0 mm 4 m/s 758 mmHg 65%
    16:00 +15°C° 0 mm 4 m/s 758 mmHg 66%
    17:00 +15°C° 0 mm 5 m/s 758 mmHg 68%
    18:00 +14°C° 0 mm 5 m/s 758 mmHg 69%
    19:00 +13°C° 0 mm 5 m/s 758 mmHg 74%
    20:00 +10°C° 0 mm 5 m/s 759 mmHg 79%
    21:00 +9°C° 0 mm 5 m/s 759 mmHg 84%
    22:00 +8°C° 0 mm 5 m/s 759 mmHg 83%
    23:00 +8°C° 0 mm 5 m/s 760 mmHg 83%
    Arată mai mult